Погода в Хонсоне

Южная Корея     36°35′24″N   126°40′14″E
темп.,
°C
ветер,
м/с
пор.,
м/с
влажн.,
%
обл.,
%
осадки,
мм/ч
давл.,
гПа
погр.,
м
27 июля, вт
вт2700:00+24вюв11813 0.0 100411
03:00+22юв11860 0.0 100411
06:00+22вюв11890 0.0 100311
09:00+28в24610 0.0 1004591
12:00+33юв24420 0.0 10031617
15:00+33з34449 0.0 10011780
18:00+28зсз24670 0.0 1001256
21:00+24с11871 0.0 100212
28 июля, ср
ср2800:00+23с11850 0.0 100311
03:00+23юв11871 0.0 100211
06:00+22вюв21915 0.0 100326
09:00+27вюв127195 0.0 1003364
12:00+31з225881 0.0 10021186
15:00+30зсз436633 0.6 1001730
18:00+28зсз237287 0.2 1001283
21:00+25сз1185100 0.4 100114
29 июля, чт
чт2900:00+24вюв1193100 0.0 100211
03:00+23ююв1195100 0.0 100211
06:00+23юв119689 0.0 100214
09:00+29ююз1171100 0.0 1002544
12:00+33зсз115499 0.1 10011439
15:00+30зсз3365100 1.1 1000815
18:00+27сз2274100 0.2 1000264
21:00+24зсз1187100 0.3 100111
30 июля, пт
пт3000:00+23в1189100 0.0 100011
03:00+23вюв119099 0.0 100011
06:00+23юв1191100 0.0 100014
09:00+28юв246689 0.0 999641
12:00+32ю35539 0.0 9981437
15:00+33ю345277 0.1 9971699
18:00+29юз268317 1.4 997536
21:00+25ю12930 1.9 99838
31 июля, сб
сб3100:00+24ююв11965 0.1 99826
03:00+24ю239836 0.1 99876
06:00+24юв119879 0.1 99839
09:00+28ю26755 0.1 998834
12:00+32ююз46534 0.1 9971523
15:00+31ююз57563 0.1 9971430
18:00+28юз35681 0.0 997826
21:00+24ююв22945 0.0 99828